Zurück zum Katalog

ARIANE 3 DEB

LostGTO
NORAD 33540·DEBRIS·🇫🇷 France

Gestartet Sep 8, 1988 von Guiana Space Centre

Loading…

TLE

VeraltetSource: Space-Track

Epoche: Sep 22, 2018, 00:09 UTC

1 33540U 88081Q   18265.00668594 -.00000027  00000-0  00000+0 0  9999
2 33540   7.1483  62.1588 6939083 234.7454  40.1105  2.15836826 99614

Verfolge ARIANE 3 DEB in Echtzeit mit AllMySat

Download on the App Store